Location: Ełk
(53.8214°N, 22.3622°E)
Time: 04:34:32
(UTC+01:00)

ISS - Pass Details

Date: 30 January 2019
Orbit: 403 x 411 km, 51.6° (Epoch: 20 February)

Event Time Altitude Azimuth Distance (km) Brightness Sun altitude
Rises 17:26:00 0° 248° (WSW) 2,332 2.1 -11.6°
Reaches altitude 10° 17:28:07 10° 243° (WSW) 1,474 0.4 -11.9°
Maximum altitude 17:31:19 49° 168° (SSE) 537 -3.3 -12.3°
Enters shadow 17:33:17 21° 100° (E) 998 -2.4 -12.6°
